Startseite
Über Mich
AHP4
Galerie
Sehschlangen
Tourenbuch
Bookmarks
Elektronik
Bewertung
Geschichten
[Tagesmessung] [Jahreswerte] [Information]

Messwerte vom 12.02.2022

Die letzten Messwerte von 23:58:45 Uhr:
KategorieMesswert
Temperatur [°C]0
Luftdruck [mBar]1006
Sonneneinstrahlung0
Wind [km/h]1 aus Südost
Niederschlag [l/m²]0
rel.Luftfeucht.90.1%
CO2 [ppm]424

Diagramme
Messwerte vom 12.02.2022
Tagesaggregation
KategorieMinimumMaximumSchnittSumme
Temperatur [°C]-58-0.0334
Luftdruck [mBar]100510171013.0835
Sonneneinstrahlung24783.6347
Wind [km/h]14
rF [%]55.396.687.07
Niederschlag [l/m²]0
CO2 [ppm]401516425.2
Einordnung alsFrosttag
Kalter Tag

Messungen an benachbarten Tagen: Zur Jahresaggregation 2022
Tabelle aller Messwerte
UhrzeitTemperatur [°C]Luftdruck [mBar]SonneWind [km/h]RichtungRegen [l/m²]rF [%]CO2 [ppm]
00:01:45 -2 1017 0 0 S 0 96.6 512
00:04:47 -2 1017 0 0 S 0 96.6 509
00:07:47 -2 1017 0 0 S 0 96.6 507
00:10:48 -2 1017 0 0 S 0 96.6 509
00:13:46 -2 1017 0 0 S 0 96.6 503
00:16:47 -2 1017 0 0 S 0 96.6 500
00:19:47 -3 1017 0 0 S 0 96.6 498
00:22:46 -3 1017 0 0 S 0 96.6 498
00:25:47 -3 1017 0 0 S 0 96.6 495
00:28:48 -3 1017 0 0 S 0 96.6 489
00:31:48 -3 1017 0 0 S 0 96.6 492
00:34:47 -3 1017 0 0 S 0 96.6 496
00:37:46 -3 1017 0 0 S 0 96.6 497
00:40:47 -3 1017 0 0 S 0 96.6 498
00:43:47 -3 1017 0 0 S 0 96.6 498
00:46:46 -3 1017 0 0 S 0 96.6 504
00:49:48 -3 1017 0 0 S 0 96.6 497
00:52:48 -3 1017 0 0 S 0 96.6 495
00:55:54 -3 1017 0 0 S 0 96.6 489
00:58:47 -3 1017 0 0 S 0 96.6 486
01:01:46 -3 1017 0 0 S 0 96.6 487
01:04:47 -3 1017 0 0 S 0 96.6 484
01:07:47 -3 1017 0 0 S 0 96.6 489
01:10:46 -3 1017 0 0 S 0 96.6 484
01:13:45 -3 1017 0 0 S 0 96.6 484
01:16:47 -3 1017 0 0 S 0 96.6 483
01:19:47 -3 1017 0 0 SO 0 96.6 486
01:22:47 -3 1017 0 0 SO 0 96.6 486
01:25:48 -3 1017 0 0 SO 0 96.6 487
01:28:46 -3 1017 0 0 SO 0 96.6 484
01:31:47 -3 1017 0 0 SO 0 96.6 479
01:34:45 -3 1017 0 0 SO 0 96.6 477
01:37:49 -3 1017 0 0 SO 0 96.6 474
01:40:49 -3 1017 0 0 SO 0 96.6 474
01:43:46 -3 1017 0 0 SO 0 96.6 477
01:46:47 -3 1017 0 0 SO 0 96.6 472
01:49:48 -3 1017 0 0 SO 0 96.6 474
01:52:47 -3 1017 0 0 SO 0 96.6 474
01:55:47 -3 1017 0 0 SO 0 96.6 468
01:58:48 -3 1017 0 0 SO 0 96.6 468
02:01:45 -3 1017 0 0 SO 0 96.6 474
02:04:48 -3 1017 0 0 SO 0 96.6 475
02:07:46 -3 1017 0 0 SO 0 96.6 475
02:10:50 -3 1017 0 0 SO 0 96.6 476
02:13:49 -3 1017 0 0 SO 0 96.6 477
02:16:48 -3 1017 0 0 SO 0 96.6 477
02:19:47 -3 1017 0 0 SO 0 96.6 477
02:22:46 -3 1017 0 0 SO 0 96.6 469
02:25:50 -4 1017 0 0 SO 0 96.6 466
02:28:46 -4 1017 0 0 SO 0 96.6 472
02:31:46 -4 1017 0 0 SO 0 96.6 473
02:34:49 -4 1017 0 0 NO 0 96.6 475
02:37:48 -4 1017 0 0 NO 0 96.6 472
02:40:49 -4 1017 0 0 NO 0 96.6 468
02:43:46 -4 1017 0 0 NO 0 96.6 459
02:46:48 -4 1017 0 0 NO 0 96.6 460
02:49:48 -4 1017 0 0 NO 0 96.6 463
02:52:48 -4 1017 0 0 NO 0 96.6 460
02:55:46 -4 1017 0 0 NO 0 96.6 458
02:58:50 -4 1017 0 0 NO 0 96.6 460
03:01:48 -4 1017 0 0 NO 0 96.6 456
03:04:47 -4 1017 0 0 NO 0 96.6 460
03:07:48 -4 1017 0 0 NO 0 96.6 461
03:10:47 -4 1017 0 0 NO 0 96.6 457
03:13:45 -4 1017 0 0 NO 0 96.6 459
03:16:46 -4 1017 0 0 NO 0 96.6 463
03:19:48 -4 1017 0 0 NO 0 96.6 463
03:22:48 -4 1017 0 0 NO 0 96.6 460
03:25:46 -4 1017 0 0 NO 0 96.6 459
03:28:46 -4 1017 0 0 NO 0 96.6 462
03:31:48 -4 1017 0 0 NO 0 96.6 456
03:34:47 -4 1017 0 0 NO 0 96.6 460
03:37:47 -4 1017 0 0 NO 0 96.6 462
03:40:46 -4 1017 0 0 NO 0 96.6 454
03:43:47 -4 1017 0 0 NO 0 96.6 448
03:46:45 -4 1017 0 0 NO 0 96.6 446
03:49:48 -4 1017 0 0 NO 0 96.6 448
03:52:46 -4 1017 0 0 NO 0 96.6 454
03:55:48 -4 1017 0 0 NO 0 96.6 460
03:58:47 -4 1017 0 0 NO 0 96.6 466
04:01:47 -4 1017 0 0 NO 0 96.6 463
04:04:46 -4 1017 0 0 NO 0 96.6 457
04:07:45 -4 1017 0 0 NO 0 96.6 454
04:10:47 -4 1017 0 0 NO 0 96.6 454
04:13:49 -4 1017 0 0 NO 0 96.6 455
04:16:47 -4 1017 0 0 NO 0 96.6 454
04:19:48 -4 1017 0 0 NO 0 96.6 448
04:22:48 -4 1017 0 0 NO 0 96.6 439
04:25:46 -4 1017 0 0 NO 0 96.6 444
04:28:46 -4 1017 0 0 NO 0 96.6 445
04:31:46 -4 1017 0 0 NO 0 96.6 443
04:34:46 -4 1017 0 0 NO 0 96.6 442
04:37:49 -4 1017 0 0 NO 0 96.6 436
04:40:46 -4 1017 0 0 NO 0 96.6 439
04:43:45 -4 1017 0 0 NO 0 96.6 444
04:46:46 -4 1017 0 0 NO 0 96.6 448
04:49:47 -4 1017 0 0 NO 0 96.6 440
04:52:45 -4 1017 0 0 NO 0 96.6 435
04:55:45 -4 1017 0 0 NO 0 96.6 438
04:58:48 -4 1017 0 0 NO 0 96.6 439
05:01:48 -4 1017 0 0 NO 0 96.6 440
05:04:45 -4 1017 0 0 NO 0 96.6 439
05:07:49 -4 1017 0 0 NO 0 96.6 440
05:10:47 -4 1017 0 0 NO 0 96.6 445
05:13:46 -4 1017 0 0 NO 0 96.6 442
05:16:49 -5 1017 0 0 NO 0 96.6 434
05:19:46 -5 1017 0 0 NO 0 96.6 433
05:22:48 -4 1017 0 0 NO 0 96.6 437
05:25:49 -4 1017 0 0 NO 0 96.6 439
05:28:48 -4 1017 0 0 NO 0 96.6 437
05:31:47 -5 1017 0 0 NO 0 96.6 434
05:34:46 -5 1017 0 0 SO 0 96.6 436
05:37:48 -5 1017 0 0 SO 0 96.6 439
05:40:48 -5 1017 0 0 SO 0 96.6 446
05:43:47 -5 1017 0 0 SO 0 96.6 443
05:46:46 -5 1017 0 0 SO 0 96.6 442
05:49:48 -4 1017 0 0 N 0 96.6 439
05:52:45 -4 1017 0 0 N 0 96.6 456
05:55:44 -4 1016 0 0 N 0 96.6 471
05:58:46 -4 1017 0 0 N 0 96.6 480
06:04:47 -4 1017 0 0 N 0 96.6 488
06:07:45 -4 1017 0 0 N 0 96.6 500
06:10:46 -4 1017 0 0 N 0 96.6 501
06:13:46 -5 1017 0 0 N 0 96.6 507
06:16:47 -5 1017 0 0 N 0 96.6 504
06:19:46 -4 1017 0 0 N 0 96.6 498
06:22:45 -4 1017 0 0 N 0 96.6 502
06:25:47 -4 1017 0 0 N 0 96.6 510
06:28:45 -5 1017 0 0 N 0 96.6 513
06:31:47 -5 1017 0 0 N 0 96.6 516
06:34:46 -5 1017 0 0 N 0 96.6 507
06:37:46 -5 1017 0 0 N 0 96.6 498
06:40:46 -5 1017 0 0 N 0 96.6 492
06:43:48 -5 1016 0 0 N 0 96.6 486
06:46:46 -5 1017 0 0 N 0 96.6 483
06:49:45 -5 1017 0 0 N 0 96.6 474
06:52:47 -5 1017 0 0 N 0 96.6 469
06:55:47 -5 1016 0 0 N 0 96.6 460
06:58:46 -5 1017 0 0 N 0 96.6 460
07:01:45 -5 1017 0 0 N 0 96.6 457
07:04:46 -5 1017 0 0 N 0 96.6 460
07:07:47 -5 1016 0 0 N 0 96.6 453
07:10:46 -5 1017 0 0 N 0 96.6 451
07:13:46 -5 1017 3 0 N 0 96.6 442
07:16:47 -5 1017 6 0 N 0 96.6 442
07:19:46 -5 1016 9 0 N 0 96.6 436
07:22:45 -5 1017 15 0 N 0 96.6 436
07:25:48 -5 1017 23 0 N 0 96.6 425
07:28:45 -5 1016 33 0 N 0 96.6 417
07:31:45 -5 1017 44 0 N 0 96.6 409
07:34:46 -5 1017 56 0 N 0 96.6 416
07:37:48 -5 1016 69 0 N 0 96.6 416
07:40:47 -5 1016 82 0 N 0 96.6 418
07:43:46 -5 1017 93 0 N 0 96.6 409
07:46:46 -5 1016 104 0 N 0 96.6 403
07:49:50 -5 1016 114 0 NO 0 96.6 404
07:52:47 -5 1017 123 0 NO 0 96.6 407
07:55:49 -5 1017 130 0 NO 0 96.6 404
07:58:46 -5 1016 137 0 NO 0 96.6 403
08:01:48 -5 1017 143 0 NO 0 96.6 404
08:04:48 -5 1017 148 0 NW 0 96.6 404
08:07:48 -5 1016 152 0 N 0 96.6 407
08:10:47 -5 1016 156 0 N 0 96.6 406
08:13:48 -5 1016 159 0 NO 0 96.6 404
08:16:47 -5 1016 162 0 NO 0 96.6 406
08:19:48 -4 1017 165 0 NO 0 96.6 407
08:22:48 -4 1017 167 0 NO 0 96.6 407
08:25:46 -4 1017 169 1 N 0 96.6 404
08:28:48 -4 1016 171 0 N 0 96.6 408
08:31:47 -4 1016 172 0 N 0 96.6 404
08:34:48 -4 1017 174 0 N 0 96.6 407
08:37:48 -4 1016 176 0 N 0 96.6 406
08:40:48 -4 1017 177 0 N 0 96.6 404
08:43:49 -4 1016 178 0 NO 0 96.6 406
08:46:49 -4 1017 179 0 NO 0 96.6 406
08:49:49 -4 1017 180 0 NW 0 96.6 407
08:52:49 -4 1016 182 0 SO 0 96.6 406
08:55:49 -3 1016 183 0 SO 0 96.6 403
08:58:49 -3 1017 184 0 S 0 96.6 403
09:01:49 -3 1016 185 0 O 0 96.6 404
09:04:49 -3 1017 185 2 S 0 96.6 406
09:07:47 -3 1016 186 2 S 0 96.6 406
09:10:49 -3 1016 186 2 S 0 96.6 404
09:13:48 -2 1016 186 0 SO 0 96.6 404
09:16:48 -2 1016 187 0 SW 0 96.6 404
09:19:49 -2 1016 187 1 S 0 96.6 404
09:22:48 -2 1017 188 1 S 0 96.6 407
09:25:46 -2 1017 189 0 S 0 96.6 406
09:28:48 -2 1016 190 3 0 96.6 404
09:31:49 -1 1016 190 1 SO 0 96.6 407
09:34:49 -1 1017 190 0 SO 0 96.6 404
09:37:49 -1 1016 191 0 SO 0 96.6 407
09:40:49 -1 1016 190 0 SO 0 96.6 406
09:43:48 -1 1017 190 1 SO 0 96.6 407
09:46:47 -1 1017 191 5 S 0 96.6 404
09:49:47 -1 1016 191 3 S 0 96.6 406
09:52:49 -1 1017 190 5 S 0 96.6 406
09:55:49 -1 1017 191 5 SO 0 96.6 407
09:58:48 0 1016 191 2 O 0 96.6 407
10:01:50 0 1017 192 0 SW 0 96.6 407
10:04:50 0 1016 192 3 SO 0 96.6 406
10:07:48 0 1016 193 5 W 0 96.6 409
10:10:48 0 1016 192 3 S 0 96.6 403
10:13:46 0 1017 193 6 SW 0 96.6 404
10:16:49 0 1016 193 1 NO 0 96.6 404
10:19:50 1 1016 194 5 SO 0 96.6 404
10:22:47 1 1016 194 7 SO 0 96.6 407
10:25:47 1 1016 195 10 S 0 96.6 401
10:28:49 1 1017 196 0 SO 0 96.6 404
10:31:48 1 1016 197 3 SO 0 96.6 408
10:34:49 1 1016 197 11 S 0 96.6 407
10:37:46 1 1015 198 8 S 0 96.6 406
10:40:46 1 1016 199 5 S 0 96.6 407
10:43:49 1 1016 200 6 SW 0 96.6 407
10:46:48 1 1015 201 8 SO 0 96.2 407
10:49:46 1 1016 202 1 S 0 95.6 404
10:52:48 1 1016 202 7 SO 0 96.1 404
10:55:48 2 1016 203 6 SW 0 96 407
10:58:49 2 1016 204 1 SW 0 95.4 404
11:01:47 2 1015 204 2 S 0 94.9 404
11:04:48 2 1016 204 3 SO 0 95.2 401
11:07:47 2 1015 205 2 S 0 94.9 406
11:10:47 2 1016 205 6 SO 0 94.7 407
11:13:46 2 1015 206 3 S 0 94 407
11:16:45 2 1015 206 5 S 0 93.4 407
11:19:49 2 1016 207 8 SO 0 92.7 406
11:22:47 3 1015 207 9 SW 0 90.6 407
11:25:49 3 1015 208 4 S 0 89.9 407
11:28:46 3 1015 208 4 S 0 90.1 407
11:31:49 3 1015 209 5 SO 0 88.6 406
11:34:47 3 1015 210 14 S 0 86.4 403
11:37:46 3 1015 211 8 W 0 84.6 407
11:40:47 3 1014 211 4 SO 0 83.2 407
11:43:47 3 1014 212 6 W 0 83.7 404
11:46:47 3 1015 212 10 SW 0 81.4 407
11:49:46 4 1014 211 3 SO 0 81 407
11:52:44 4 1014 211 7 S 0 81.3 407
11:55:47 4 1014 210 6 S 0 79.3 407
11:58:45 4 1015 211 4 SW 0 78.9 404
12:01:49 4 1014 212 6 SW 0 79.2 404
12:04:47 5 1014 214 4 S 0 78 404
12:07:44 5 1014 215 5 S 0 77.1 404
12:10:45 5 1014 215 2 S 0 78 404
12:13:48 6 1014 216 4 W 0 74.8 406
12:16:47 7 1013 217 6 S 0 75 404
12:19:48 7 1014 218 6 SO 0 73.5 404
12:22:46 7 1014 215 4 SO 0 72.8 407
12:25:46 7 1014 217 6 S 0 70.7 405
12:28:46 7 1014 219 5 S 0 71 406
12:31:51 7 1014 219 14 SO 0 72.8 405
12:34:49 7 1014 218 5 SW 0 73.4 404
12:37:48 7 1014 218 3 SO 0 73.6 407
12:40:47 8 1014 218 4 SW 0 75.3 404
12:43:48 8 1014 218 11 SO 0 67.5 407
12:46:46 8 1013 218 7 S 0 70.5 407
12:49:48 8 1014 219 7 S 0 71 404
12:52:48 8 1013 221 14 SW 0 70.3 407
12:55:47 8 1013 221 6 SO 0 70.1 407
12:58:45 8 1014 223 7 S 0 70.4 404
13:01:46 7 1013 223 2 S 0 70.8 407
13:04:45 7 1013 224 6 S 0 71.8 407
13:07:47 7 1013 225 6 SW 0 71.7 406
13:10:47 7 1013 226 7 S 0 66.5 404
13:13:46 7 1013 227 4 S 0 67.3 407
13:16:46 7 1013 226 7 S 0 68.8 404
13:19:48 7 1013 227 3 SO 0 70.7 407
13:22:46 8 1013 227 9 S 0 70.5 404
13:25:45 8 1013 226 7 S 0 71.2 407
13:28:48 8 1013 226 5 S 0 66.4 407
13:31:49 8 1013 225 6 SO 0 68.8 404
13:34:46 7 1013 222 3 S 0 69.1 406
13:37:52 7 1013 225 11 SO 0 68.7 407
13:40:48 7 1013 224 4 SO 0 69 404
13:43:46 7 1013 226 9 SW 0 70.5 404
13:46:47 7 1013 227 4 S 0 69.9 406
13:49:49 7 1013 227 3 SO 0 69.9 406
13:52:48 7 1013 228 8 S 0 68.6 407
13:55:48 7 1013 230 6 SO 0 68.4 407
13:58:47 7 1013 231 6 SO 0 67.2 403
14:01:48 8 1013 232 8 SO 0 68.3 407
14:04:49 8 1013 233 9 SO 0 67.8 409
14:07:33 6 1013 233 7 SW 0 60.2 407
14:10:48 8 1013 234 12 SO 0 64.3 404
14:13:49 8 1013 241 7 SO 0 66.3 406
14:16:46 8 1013 241 7 SO 0 66.6 405
14:19:48 8 1013 242 2 0 61.2 406
14:22:48 8 1013 242 12 SO 0 61.4 404
14:25:48 8 1013 242 7 SW 0 57.3 407
14:28:48 8 1012 243 11 S 0 57.8 404
14:31:48 8 1013 247 5 NO 0 59.4 408
14:34:45 8 1013 246 5 S 0 58.7 406
14:37:47 8 1012 246 7 0 58.8 405
14:40:48 8 1012 243 7 S 0 60.3 406
14:43:49 8 1012 243 4 SW 0 61.3 404
14:46:49 8 1012 243 5 SO 0 60 404
14:49:46 8 1012 242 5 SW 0 61 407
14:52:47 8 1012 242 11 S 0 62.7 407
14:55:48 8 1013 242 10 S 0 59.3 407
14:58:48 8 1012 240 7 S 0 58.4 404
15:01:48 7 1012 239 5 S 0 57.9 404
15:04:46 7 1012 241 7 SO 0 59.2 407
15:07:47 7 1012 243 8 W 0 61.1 407
15:10:48 7 1011 241 3 SO 0 62.1 407
15:13:47 6 1012 241 6 S 0 62.5 404
15:16:45 6 1011 240 5 S 0 62.7 407
15:19:46 6 1012 235 11 S 0 62.3 407
15:22:48 6 1011 231 8 SO 0 63.2 405
15:25:47 6 1011 228 9 SO 0 63.3 403
15:28:46 6 1011 231 14 S 0 64.3 403
15:31:45 5 1011 227 5 S 0 64.5 404
15:34:30 5 1011 233 6 S 0 55.3 406
15:37:49 5 1010 227 3 SO 0 66.5 401
15:40:46 5 1011 224 4 O 0 66.4 404
15:43:48 5 1010 234 3 SO 0 66.6 404
15:46:48 5 1011 232 8 S 0 66.6 401
15:49:45 5 1010 233 6 S 0 66.4 404
15:52:46 5 1011 213 11 SO 0 66.8 403
15:55:47 5 1011 210 5 SW 0 67.4 404
15:58:46 5 1011 209 3 S 0 67.4 407
16:01:48 4 1010 209 3 S 0 68.5 407
16:04:47 4 1010 210 3 NO 0 68.7 407
16:07:48 4 1010 211 5 SO 0 69 405
16:10:49 4 1010 213 1 W 0 69.8 407
16:13:48 4 1010 210 1 S 0 70.7 407
16:16:49 4 1010 208 4 SO 0 71.1 404
16:19:48 4 1010 207 1 S 0 70.9 404
16:22:46 4 1010 208 10 S 0 71 407
16:25:47 4 1010 204 4 SW 0 70.9 407
16:28:47 4 1010 203 3 S 0 70.8 407
16:31:48 4 1010 202 6 SO 0 71.1 406
16:34:47 4 1010 201 6 SO 0 71.1 405
16:37:49 3 1010 199 8 SO 0 71.1 407
16:40:46 3 1010 196 6 O 0 71.4 405
16:43:48 3 1010 192 1 S 0 72.4 407
16:46:49 3 1010 188 1 SO 0 72.8 405
16:49:48 3 1010 184 2 SO 0 73.2 407
16:52:49 3 1010 180 2 SW 0 73.6 407
16:55:48 3 1010 176 6 SW 0 74 407
16:58:49 3 1010 172 2 SO 0 74.1 407
17:01:49 3 1010 166 3 S 0 74.7 404
17:04:47 3 1009 161 1 S 0 74.7 407
17:07:46 3 1010 155 2 S 0 74.8 407
17:10:46 3 1010 149 1 S 0 75.2 404
17:13:48 2 1010 141 0 SO 0 75.4 404
17:16:47 2 1010 131 2 SO 0 75.4 407
17:19:48 2 1010 118 3 SO 0 75.8 407
17:22:48 2 1010 102 4 S 0 76.5 404
17:25:45 2 1010 87 5 S 0 76.6 407
17:28:45 2 1010 74 3 S 0 76.7 405
17:31:47 2 1010 62 1 SO 0 77 405
17:34:48 2 1010 48 2 S 0 77 408
17:37:47 2 1010 35 7 SO 0 76.9 407
17:40:46 2 1010 25 2 S 0 77 404
17:43:45 2 1009 16 0 S 0 77.4 407
17:46:45 2 1010 10 1 SO 0 77.6 407
17:49:47 2 1010 6 4 SO 0 77.8 404
17:52:44 2 1010 3 6 S 0 78.2 404
17:55:45 2 1009 0 5 S 0 78.2 401
17:58:44 2 1010 0 4 SO 0 78.2 407
18:01:47 2 1009 0 1 SW 0 78 404
18:04:47 2 1009 0 2 S 0 77.9 404
18:07:46 2 1009 0 0 SO 0 78 404
18:10:50 2 1009 0 1 SW 0 78.2 407
18:13:47 1 1009 0 3 SO 0 78.2 404
18:16:46 1 1010 0 1 SO 0 78.4 404
18:19:48 1 1010 0 1 SO 0 78.8 407
18:22:45 1 1010 0 0 O 0 79.3 405
18:25:44 1 1009 0 0 N 0 79.6 407
18:28:47 1 1009 0 0 O 0 80.2 406
18:31:47 1 1009 0 0 NO 0 80.8 406
18:34:46 0 1009 0 0 S 0 81.5 404
18:37:44 0 1009 0 0 0 82.1 406
18:40:47 0 1009 0 0 NW 0 82.5 407
18:43:48 0 1009 0 0 NW 0 82.8 407
18:46:46 0 1009 0 0 NO 0 82.9 407
18:49:47 0 1009 0 0 NW 0 83.2 407
18:52:46 0 1009 0 1 N 0 83.7 407
18:55:48 0 1009 0 0 N 0 83.8 404
18:58:46 0 1010 0 0 SO 0 84.2 404
19:01:47 0 1009 0 1 SO 0 84.3 403
19:04:47 0 1009 0 1 SO 0 84.5 404
19:07:47 0 1009 0 0 SO 0 84.5 405
19:10:47 0 1009 0 1 SO 0 84.5 404
19:13:48 0 1009 0 0 SO 0 84.6 403
19:16:47 0 1009 0 6 S 0 84.7 407
19:19:48 0 1009 0 0 SO 0 84.9 407
19:22:46 0 1009 0 0 N 0 85 406
19:25:47 0 1009 0 0 NO 0 85.2 404
19:28:47 0 1009 0 0 NO 0 85.6 404
19:31:48 0 1009 0 1 SO 0 85.8 404
19:34:46 0 1008 0 0 S 0 86.3 407
19:37:45 0 1009 0 1 S 0 86.4 406
19:40:48 0 1009 0 3 SO 0 86.7 407
19:43:47 0 1009 0 6 SW 0 86.8 404
19:46:46 0 1008 0 5 S 0 87.1 404
19:49:47 0 1009 0 6 SO 0 87.5 404
19:52:48 0 1009 0 4 SW 0 87.3 407
19:55:47 0 1008 0 1 S 0 86.6 403
19:58:47 0 1009 0 3 SO 0 86.2 404
20:01:47 0 1009 0 2 SO 0 85.7 405
20:04:47 0 1009 0 2 S 0 85.7 404
20:07:48 0 1008 0 3 SO 0 86.1 404
20:10:48 0 1008 0 0 O 0 86 408
20:13:46 0 1009 0 2 SO 0 85.8 407
20:16:46 0 1008 0 1 SW 0 85.8 407
20:19:49 0 1008 0 2 SO 0 85.9 405
20:22:46 0 1008 0 1 SO 0 85.8 406
20:25:48 0 1008 0 2 SO 0 85.8 407
20:28:45 0 1007 0 1 S 0 86.2 406
20:31:48 0 1008 0 0 S 0 86.4 407
20:34:47 0 1008 0 0 SO 0 86.3 403
20:37:46 0 1007 0 5 S 0 86.3 407
20:40:49 0 1008 0 4 SW 0 86.8 404
20:43:46 0 1007 0 5 SO 0 87 406
20:46:46 0 1007 0 5 S 0 87.2 407
20:49:47 0 1008 0 4 S 0 87.7 403
20:52:47 0 1007 0 5 S 0 88 407
20:55:45 0 1007 0 4 SO 0 88.1 401
20:58:46 0 1007 0 1 S 0 87.7 407
21:01:46 0 1007 0 6 SW 0 87.6 407
21:04:47 0 1007 0 3 S 0 87.8 406
21:07:46 0 1007 0 2 SO 0 87.8 404
21:10:50 0 1007 0 5 SW 0 87.7 407
21:13:45 0 1007 0 6 SO 0 87.6 407
21:16:47 0 1007 0 4 S 0 87.6 404
21:19:46 0 1007 0 2 SO 0 87.6 406
21:22:49 0 1007 0 2 NO 0 87.6 407
21:25:47 0 1007 0 0 N 0 88 407
21:28:46 0 1007 0 0 SO 0 88.3 406
21:31:47 0 1007 0 0 SO 0 88.3 406
21:34:45 0 1007 0 3 O 0 88.3 401
21:37:44 0 1007 0 1 O 0 88.4 407
21:40:48 -1 1007 0 4 SO 0 88.9 407
21:43:46 -1 1007 0 1 NO 0 89.4 407
21:46:49 -1 1006 0 1 NO 0 89.8 404
21:49:48 -1 1007 0 0 NO 0 90.2 407
21:52:45 -1 1006 0 1 O 0 90.6 407
21:55:46 -1 1006 0 3 SO 0 90.7 404
21:58:46 -1 1006 0 5 S 0 90.4 404
22:01:48 -1 1006 0 2 O 0 90.3 413
22:04:47 -1 1006 0 1 O 0 90.3 419
22:07:48 -1 1006 0 0 O 0 90.3 416
22:10:49 -1 1006 0 0 NO 0 90.4 416
22:13:46 -1 1006 0 1 SO 0 90.3 407
22:16:45 -1 1006 0 0 O 0 90.3 413
22:19:46 -1 1006 0 0 S 0 90.4 416
22:22:46 -1 1006 0 0 O 0 90.5 410
22:25:46 -1 1006 0 0 SO 0 90.8 407
22:28:47 -1 1006 0 2 SO 0 91.1 407
22:31:46 -1 1006 0 2 O 0 91.2 406
22:34:46 -1 1006 0 3 S 0 91.7 406
22:37:48 -1 1006 0 6 SO 0 92.4 407
22:40:48 -1 1006 0 10 S 0 92.9 404
22:43:47 -1 1006 0 6 SO 0 93 407
22:46:48 -1 1006 0 3 SO 0 93.2 409
22:49:49 -1 1006 0 3 SO 0 93.1 407
22:52:48 -1 1006 0 6 S 0 92.8 412
22:55:47 0 1006 0 4 SO 0 92.5 409
22:58:46 0 1006 0 1 SO 0 92.3 407
23:01:48 -1 1006 0 1 SO 0 92 404
23:04:46 -1 1006 0 0 N 0 91.6 407
23:07:48 -1 1006 0 0 SO 0 91.5 407
23:10:48 -1 1006 0 4 S 0 91.5 407
23:13:48 -1 1006 0 2 SO 0 91.6 413
23:16:45 -1 1006 0 3 O 0 91.9 415
23:19:49 -1 1006 0 0 SO 0 92.1 407
23:22:47 -1 1006 0 3 SO 0 92.2 404
23:25:49 0 1006 0 3 SO 0 92.4 409
23:28:46 0 1006 0 0 0 92.4 407
23:31:47 0 1006 0 2 S 0 92 407
23:34:46 0 1006 0 3 S 0 91.5 407
23:37:47 0 1006 0 1 SO 0 91.3 407
23:40:49 0 1006 0 2 SO 0 90.5 403
23:43:46 0 1005 0 2 SO 0 90.2 404
23:46:45 0 1006 0 3 S 0 90 406
23:49:48 0 1006 0 1 SO 0 90.1 405
23:52:46 0 1006 0 3 SO 0 90.2 407
23:55:45 0 1005 0 2 S 0 90.2 419
23:58:45 0 1006 0 1 SO 0 90.1 424

Letzte Änderung : 04-Jan-2022
Copyright Jens Köhler, Wolfsburg, Obere Dorfstraße 10d